Theta_e
318 317 317 316 317 317 317 318 320 320 320 322 324 323 323 324 322 322 324 327 327 326 323 320 318 317 316 314 313 311 311 311 311 311 311 310 310 310 310 309 310 311 311 312 312 312 314 317 320 323 325 326 326 326 326 326 325 325 325 324 324 323 323 322 321 320 322 323 323 322 321 321 322 322 322 322 321 319 318 318 317 317 316 315 316 316 316
318 317 317 316 316 316 317 317 318 318 319 320 321 321 320 321 324 324 324 326 322 316 315 315 313 312 312 311 310 310 310 310 310 310 309 309 308 308 307 307 307 308 309 310 310 310 310 312 314 317 319 321 322 322 322 322 323 323 323 322 322 322 321 320 319 319 320 321 321 321 320 320 321 320 319 321 321 320 320 319 319 318 318 317 317 316 316
320 318 317 316 316 317 317 316 316 317 319 319 319 320 319 321 324 324 323 325 319 312 311 312 310 310 310 310 309 309 309 309 309 308 308 307 307 306 306 305 305 305 306 308 309 307 307 308 309 311 313 315 317 318 319 319 320 321 320 320 319 319 319 319 319 319 319 319 320 320 320 320 319 318 318 318 320 321 321 321 321 320 320 320 319 319 319
320 319 318 317 317 317 317 316 314 315 317 319 318 318 318 319 321 323 324 325 319 312 310 310 310 309 309 308 308 308 307 307 307 307 306 306 306 305 305 304 304 304 304 306 307 305 305 306 306 307 309 311 312 313 314 315 317 318 318 317 316 316 317 317 318 319 319 318 318 319 319 319 317 316 317 317 317 317 317 319 321 321 321 321 321 320 319
319 319 319 319 318 318 319 315 312 312 314 316 317 318 317 316 318 321 323 321 315 311 311 311 310 308 307 307 307 307 307 306 306 306 306 305 305 304 304 304 304 303 303 304 304 304 303 304 304 305 306 307 307 308 310 311 313 315 315 313 313 312 313 314 316 317 317 316 316 316 317 316 315 315 316 315 316 316 315 316 318 319 319 320 318 317 315
318 319 319 318 320 320 317 312 310 311 313 313 315 316 314 314 316 318 319 316 313 312 312 311 309 306 305 305 304 305 306 306 306 306 305 305 304 304 304 303 303 304 304 303 303 303 303 303 303 303 304 304 305 305 306 308 309 310 310 310 310 309 309 310 310 312 314 314 313 314 314 313 314 314 314 314 314 314 315 315 316 316 316 315 314 313 311
317 318 318 320 321 317 313 310 308 309 311 311 312 314 312 311 314 316 315 314 312 311 309 307 305 304 303 303 303 303 303 304 305 306 304 304 304 304 303 303 303 304 303 303 303 303 302 302 303 303 303 303 303 303 304 304 305 306 306 306 307 307 307 307 307 308 309 309 309 309 309 309 310 310 311 312 311 311 311 312 312 312 312 312 312 311 310
316 317 318 319 318 313 311 311 308 308 310 310 311 314 314 310 311 313 313 312 310 308 306 305 304 303 303 303 302 302 302 303 304 304 304 304 304 304 304 303 303 303 303 303 303 302 302 302 302 303 302 302 302 302 302 302 303 303 304 304 304 305 305 305 305 306 306 306 306 306 306 306 306 306 307 307 307 308 308 308 308 308 309 309 309 309 309
315 316 317 316 315 314 312 310 308 307 308 308 308 312 313 309 309 311 310 309 307 306 305 304 304 305 305 304 302 301 301 302 302 303 303 304 304 304 304 303 303 303 302 302 302 301 301 301 301 302 302 303 303 302 302 302 301 302 302 302 302 303 303 304 304 304 304 304 305 305 305 305 304 304 304 304 303 304 304 303 303 303 304 304 305 305 305
314 315 317 315 316 316 312 309 307 306 306 305 305 309 311 308 308 309 308 307 306 305 305 305 306 307 307 305 302 300 299 301 302 301 302 303 304 304 304 303 303 302 302 302 301 300 300 300 300 300 301 302 302 302 302 301 301 301 301 300 301 301 301 302 303 304 305 305 305 305 305 305 304 304 304 303 302 302 302 301 300 300 300 300 301 301 301
314 315 316 315 316 315 310 307 306 305 305 304 305 311 313 308 306 307 307 305 305 305 306 306 307 309 307 304 301 299 299 301 302 301 301 302 302 303 304 304 303 303 302 302 301 301 300 300 299 299 299 300 300 300 300 300 301 301 300 300 300 300 301 301 301 302 302 303 303 304 304 304 304 304 303 303 304 306 306 305 303 302 302 301 300 300 299
313 314 314 313 312 311 308 306 305 305 304 305 309 316 315 307 305 307 306 305 305 305 305 305 305 306 305 302 300 298 299 301 302 302 301 301 301 302 302 302 302 302 302 301 301 300 300 299 299 299 299 299 299 299 299 299 300 300 300 299 299 299 300 300 300 300 300 300 300 300 300 300 301 301 302 303 304 305 306 305 304 303 304 304 302 302 301
312 312 313 311 310 308 306 305 305 304 305 308 313 315 310 305 305 306 305 305 305 304 305 304 301 300 300 299 298 297 299 301 302 302 301 300 300 300 300 301 301 301 300 300 300 300 299 299 299 299 299 299 299 299 299 299 299 299 299 299 298 298 299 299 298 299 299 300 300 300 300 300 300 300 301 302 302 303 303 303 302 302 302 302 302 302 302
312 312 312 311 311 307 304 304 305 305 308 312 311 307 305 304 305 305 304 303 302 301 301 300 298 297 297 296 296 296 298 300 302 302 301 300 300 300 300 300 300 300 301 300 300 300 299 299 299 299 299 299 299 299 299 299 299 299 299 299 299 299 299 298 298 298 298 299 300 300 301 301 300 300 301 302 302 302 303 303 303 302 302 302 302 302 301
310 311 311 312 311 307 303 304 306 306 308 309 306 303 304 305 303 302 301 300 300 299 298 297 297 297 296 296 297 297 299 301 302 302 301 300 300 300 299 299 299 300 300 300 300 300 300 300 300 299 299 299 299 299 299 299 298 298 299 299 299 299 299 299 298 299 299 299 300 300 300 300 301 301 301 301 302 302 303 303 303 303 303 303 304 304 303
309 311 310 309 307 304 303 303 305 304 304 305 304 304 304 303 301 301 300 298 298 298 298 298 298 297 297 298 298 299 301 302 302 301 301 301 300 299 299 299 299 299 299 300 300 300 300 300 300 300 299 299 299 299 299 299 298 298 298 298 298 298 299 299 299 299 299 299 299 300 300 300 300 300 300 301 301 301 302 302 302 303 303 302 303 303 303
307 307 306 305 304 304 304 303 303 304 304 304 304 304 303 302 301 300 299 299 299 298 298 298 298 298 298 299 299 300 301 302 302 301 301 301 300 300 299 299 299 299 299 299 299 300 300 300 299 299 299 299 299 299 299 299 299 299 299 299 299 299 299 300 299 299 299 299 299 299 299 299 299 299 300 300 300 300 301 301 301 302 301 301 301 302 302
305 305 304 303 304 304 304 303 303 304 304 304 304 304 303 302 301 300 300 299 299 299 299 299 298 299 299 299 300 301 302 302 302 301 301 301 300 300 300 300 299 299 299 299 299 300 300 300 300 300 300 299 299 299 299 299 299 299 299 300 300 300 300 300 300 300 300 300 299 299 298 299 299 299 299 299 300 300 300 300 300 300 300 300 300 300 301
306 306 305 304 304 305 304 303 303 304 304 303 304 303 302 301 301 301 300 300 300 300 299 298 298 299 299 300 300 301 301 302 301 300 300 301 300 300 300 300 300 300 300 300 300 300 300 300 300 299 299 299 299 299 299 299 299 299 300 300 300 300 300 300 300 300 299 299 299 299 299 299 299 299 299 299 299 299 300 300 300 300 300 300 300 300 301
305 306 305 304 304 304 303 303 303 303 303 303 303 303 302 302 301 301 301 301 300 300 300 299 299 299 300 300 300 300 300 300 300 299 299 299 300 300 300 300 300 300 300 300 300 300 300 300 299 299 299 299 299 299 299 299 299 299 299 300 300 300 300 300 300 299 299 298 299 299 299 299 299 299 299 299 299 299 299 299 300 300 300 300 300 300 300
304 304 304 304 303 303 303 303 303 303 303 303 303 303 302 302 301 301 301 302 301 301 300 301 300 300 300 301 301 300 300 300 299 299 299 299 299 300 300 300 300 299 300 300 300 299 299 299 299 299 299 299 299 299 299 299 299 299 299 300 300 300 300 300 300 299 298 298 299 299 299 299 298 297 297 298 299 299 297 296 296 297 299 300 299 299 299
303 304 304 304 303 302 303 303 303 303 303 303 303 303 302 302 302 301 301 302 302 302 301 301 301 300 300 301 301 300 300 299 299 299 299 299 299 299 300 300 299 299 299 299 299 299 299 299 299 299 299 299 299 299 299 299 299 299 300 300 300 300 299 299 299 299 298 298 298 299 299 299 299 297 296 295 296 297 296 295 294 295 296 296 296 296 297
303 303 304 304 303 302 302 303 303 303 303 303 302 303 303 303 303 303 302 301 301 302 302 302 302 301 301 301 301 300 299 299 299 299 299 299 299 299 299 299 299 299 299 299 298 298 298 298 298 298 299 299 299 298 299 299 299 299 299 299 300 300 299 298 298 298 298 298 298 298 298 299 299 299 298 296 295 295 295 295 295 295 294 295 295 295 295
303 303 303 303 303 302 302 302 302 303 303 302 301 301 302 303 303 303 303 303 302 302 302 302 302 301 301 301 301 300 299 299 299 299 299 299 299 299 299 298 299 299 298 298 298 298 297 297 297 298 298 299 299 299 298 299 299 299 299 299 299 299 299 298 297 298 298 298 298 298 298 298 298 299 299 298 297 296 296 295 295 295 294 294 295 295 295
303 303 303 303 302 302 302 302 302 303 303 302 301 301 301 302 302 302 302 302 302 302 303 302 302 302 301 301 301 300 299 299 299 299 299 298 298 298 298 298 298 298 298 297 297 297 297 297 297 297 297 298 299 299 298 298 299 299 299 299 299 298 298 298 297 297 298 298 298 298 298 298 298 298 298 298 299 298 297 296 296 295 295 295 295 295 295
302 302 302 302 302 302 302 302 301 302 302 302 302 301 301 302 302 301 301 301 301 301 302 302 302 301 301 301 300 300 299 299 299 299 298 298 298 298 298 298 297 297 297 297 297 296 296 296 296 296 297 298 298 299 298 298 298 299 298 299 299 298 297 298 298 297 297 297 297 297 297 297 297 298 298 298 298 298 298 298 297 296 296 295 295 295 295
302 302 302 301 301 301 301 301 301 301 301 301 301 300 300 300 301 300 300 300 300 301 301 301 301 301 301 301 300 300 299 299 299 298 298 298 297 297 297 297 297 297 297 297 297 296 296 296 296 296 297 298 298 299 299 298 299 299 299 298 298 297 296 297 297 297 297 297 297 297 297 297 297 297 297 297 297 298 298 298 298 298 298 297 296 295 294
301 302 302 301 300 300 300 301 301 300 300 300 300 299 299 299 299 299 299 299 299 299 300 300 300 300 300 300 300 299 298 298 298 298 298 297 297 297 297 298 298 298 297 297 297 297 296 296 296 296 296 298 298 298 299 299 299 299 299 298 298 298 297 297 297 297 297 297 297 297 297 297 297 297 297 297 297 297 297 297 297 298 298 297 297 296 295
300 301 301 301 300 301 301 301 300 300 300 300 299 299 299 299 299 299 299 299 299 299 299 300 300 300 299 299 299 299 298 298 298 297 297 298 298 297 297 297 297 297 297 297 297 297 296 296 296 295 296 297 298 298 298 299 299 299 299 298 298 298 298 297 297 297 297 297 296 296 296 297 297 297 297 297 297 297 297 297 297 297 297 297 296 297 296
300 301 301 300 301 301 300 300 300 299 299 300 300 299 299 299 298 298 298 299 299 299 299 299 299 299 299 299 298 298 298 297 297 297 297 298 297 296 296 297 297 297 297 297 297 297 296 296 296 295 295 297 298 298 298 298 299 299 298 298 298 297 296 296 296 297 297 297 296 296 296 297 297 297 297 297 296 297 297 296 296 296 297 297 296 296 296
300 301 301 300 300 300 299 299 299 299 299 300 300 299 299 299 298 298 299 299 299 299 299 299 299 299 299 298 298 298 298 297 297 297 297 296 295 294 294 295 295 295 295 295 296 296 296 296 296 295 295 296 297 298 298 298 298 298 298 298 298 297 295 294 295 297 296 296 296 296 296 297 297 297 296 296 296 296 296 296 296 296 296 296 295 295 294
300 300 300 300 299 299 299 299 299 299 299 299 299 299 299 299 299 298 299 299 299 299 299 299 298 298 298 298 298 298 297 296 296 295 295 295 294 292 291 292 294 294 294 294 294 295 295 295 296 295 295 295 296 297 298 298 298 298 298 298 298 297 295 294 295 296 296 296 296 296 296 296 297 297 296 296 296 296 296 296 295 295 295 295 295 294 293
300 299 299 299 299 299 299 299 299 299 299 299 299 299 299 299 299 299 299 298 298 298 298 298 298 298 298 298 298 297 296 295 295 295 294 293 292 291 292 293 294 294 295 295 295 295 295 295 295 295 294 294 296 297 298 298 298 298 298 298 298 297 296 295 295 296 296 296 296 296 296 296 296 297 296 295 295 295 295 295 295 295 295 295 295 294 292
300 299 300 300 300 299 299 299 299 299 299 299 299 299 299 298 298 299 298 298 298 298 298 298 298 298 298 297 296 295 295 295 295 295 294 292 291 292 293 294 294 294 295 295 295 295 295 295 295 294 294 294 295 297 297 297 298 298 298 298 298 297 296 296 295 296 296 296 296 296 296 296 296 296 296 295 294 294 294 294 295 295 295 295 295 294 292
300 300 300 300 300 300 299 299 299 299 299 299 298 299 299 298 298 298 298 298 298 298 298 298 298 297 296 295 295 295 294 295 295 295 293 292 291 292 294 294 295 296 296 296 295 295 295 295 295 295 295 295 296 297 297 298 298 297 297 298 298 297 296 296 295 296 296 296 296 296 296 296 296 295 295 295 294 294 294 294 294 294 294 294 294 294 293
300 300 300 300 300 300 300 300 299 299 299 299 298 298 299 298 298 298 298 298 298 298 298 298 297 295 295 295 295 295 294 294 294 294 293 291 291 293 293 294 295 296 296 296 296 295 295 295 295 294 294 295 296 297 297 297 297 297 298 297 297 297 296 295 295 296 296 296 296 295 295 295 295 295 295 294 294 294 294 294 294 294 294 294 294 294 293
299 299 299 299 299 299 300 299 299 299 299 299 298 298 299 298 298 298 298 298 298 298 298 298 297 295 295 295 295 294 294 294 294 294 292 291 292 293 293 293 294 296 296 296 296 295 295 294 294 293 293 294 296 297 297 297 297 297 297 297 297 297 296 295 295 295 295 295 295 295 294 294 295 295 294 294 294 294 294 294 294 294 294 293 293 293 293
299 299 299 299 299 299 299 299 298 298 298 298 298 298 298 298 298 298 298 298 298 298 298 298 298 297 295 295 294 294 294 294 294 293 292 291 292 292 292 293 294 295 296 297 296 295 295 294 294 293 294 295 297 297 297 296 296 297 297 297 297 296 296 295 295 295 295 295 295 295 295 295 295 295 294 294 294 294 294 294 294 293 293 293 293 293 293
300 300 299 299 299 299 299 298 298 298 298 298 298 298 298 298 298 298 298 298 298 298 297 297 298 297 297 296 296 295 295 294 294 293 292 291 291 292 293 293 294 294 295 295 296 295 295 294 294 295 297 297 297 297 296 295 296 296 297 297 297 296 296 295 295 295 295 295 295 295 295 295 295 294 294 294 294 294 293 293 293 293 293 293 293 293 292
300 300 299 299 299 299 299 299 299 298 298 298 298 298 298 299 298 298 298 298 298 298 297 297 297 297 297 297 297 297 296 295 294 293 292 291 292 293 293 294 294 294 294 294 295 295 294 293 294 296 297 297 297 296 296 295 296 296 296 296 296 296 296 295 295 295 295 295 295 295 295 295 294 294 293 293 294 294 293 293 293 293 293 294 293 293 292
299 299 299 299 299 299 299 299 299 299 299 298 298 298 299 299 299 299 299 299 299 298 297 297 297 297 298 297 297 297 297 297 295 294 293 292 293 294 294 294 294 294 293 294 294 295 294 293 293 294 295 296 296 296 295 295 295 296 295 295 296 296 296 295 294 295 295 295 295 295 295 294 294 294 293 293 293 293 293 294 294 293 294 294 293 293 292
300 300 299 299 299 299 299 299 299 299 299 299 299 299 299 298 298 298 298 298 298 298 298 297 297 297 297 297 297 297 297 296 296 295 295 294 294 294 293 293 293 293 292 293 293 294 294 294 293 293 293 295 296 295 294 294 294 294 295 295 295 296 296 295 294 294 294 294 294 295 295 295 294 294 293 293 293 293 293 294 294 293 293 293 293 293 292
300 300 300 299 299 299 299 299 299 299 299 299 299 299 299 298 298 298 298 298 298 298 298 298 297 297 297 297 297 297 297 297 296 296 296 295 295 294 293 293 293 293 291 291 292 293 294 294 294 292 292 293 294 293 293 293 294 294 294 295 295 295 296 295 295 294 294 294 294 294 294 295 295 294 293 293 293 293 293 294 294 293 293 293 293 293 292
300 300 299 299 299 299 299 299 299 299 299 299 299 299 299 299 298 298 298 298 298 298 298 298 298 298 298 297 297 297 297 297 296 296 296 295 295 295 293 292 292 292 291 290 291 292 293 294 294 293 292 292 292 292 292 293 293 293 294 295 295 295 295 295 295 294 294 294 294 294 294 294 294 294 293 293 293 293 293 293 293 293 293 293 293 293 292
300 300 299 299 299 299 299 299 299 299 299 299 299 299 299 299 298 298 298 298 298 298 298 298 298 298 298 298 298 297 297 297 296 296 296 295 295 295 294 292 292 292 291 290 291 292 293 293 293 293 292 292 292 292 292 292 293 293 293 294 295 295 295 295 295 295 294 294 294 294 294 294 294 294 294 293 293 293 293 293 293 293 293 293 293 292 292
300 299 299 299 299 299 299 299 299 299 299 299 299 299 299 299 298 298 298 298 298 298 298 298 298 298 298 298 298 297 297 297 296 296 296 295 295 294 293 292 292 292 291 290 291 292 292 292 291 291 292 292 292 292 292 292 292 292 293 293 294 295 295 295 295 295 294 294 294 294 294 294 294 294 293 293 293 293 293 293 293 293 293 293 292 292 292
299 299 299 299 299 299 299 299 299 299 299 298 298 298 299 299 298 298 298 298 298 298 298 298 298 298 298 298 297 297 297 297 296 296 296 295 295 294 292 291 291 291 290 290 291 291 291 290 290 290 291 292 292 292 292 292 292 292 292 293 294 294 295 295 295 295 295 294 294 294 293 293 293 293 293 293 293 293 293 292 293 293 293 292 292 292 292
299 299 299 299 299 298 299 299 299 298 298 298 298 298 298 298 298 298 298 298 298 298 298 298 298 298 298 298 297 297 297 297 296 296 296 295 295 294 293 292 291 290 290 290 291 290 289 289 290 291 291 292 292 292 292 292 292 292 292 292 293 294 295 295 295 295 294 294 294 294 293 293 293 293 293 293 293 293 293 292 292 293 293 292 292 292 291
299 299 299 299 299 299 299 299 298 298 298 298 298 298 298 298 298 298 298 298 298 298 298 298 298 298 298 297 297 297 297 296 296 296 296 295 295 294 293 292 290 290 290 292 292 291 288 288 290 291 291 291 291 292 292 292 291 291 292 293 294 295 295 295 295 295 294 294 294 294 294 294 293 293 293 293 293 293 292 292 292 292 292 292 292 291 291
299 299 298 298 298 298 298 298 298 298 298 298 298 298 298 298 298 298 298 298 298 298 298 298 298 298 297 297 296 296 296 296 296 296 295 295 295 295 293 292 291 290 290 291 292 290 288 287 288 288 288 289 291 291 291 291 291 292 293 293 294 294 294 294 294 294 295 294 294 293 294 294 293 293 292 292 292 292 292 292 292 291 291 291 291 291 290
298 298 298 298 298 298 298 298 297 297 298 298 298 298 298 298 298 297 297 297 297 298 298 298 298 297 297 297 297 296 296 295 295 295 295 294 294 293 292 291 291 290 289 290 291 291 290 289 289 288 287 289 290 290 289 290 291 293 293 293 292 292 292 292 292 293 294 294 294 293 293 293 293 292 292 292 292 291 291 291 291 291 291 291 290 290 290
298 297 297 297 297 297 297 297 297 297 298 298 298 298 298 298 298 298 297 297 297 297 297 297 297 297 297 297 297 296 295 295 295 294 294 293 293 293 292 291 291 291 291 291 291 291 290 290 289 288 288 289 290 290 289 290 292 293 292 292 291 291 290 290 290 291 292 293 293 293 293 293 293 292 292 292 291 291 291 291 290 290 290 290 290 290 289
Wind_Speed
4 2 2 2 1 1 3 5 6 6 7 6 4 3 5 6 4 2 4 6 4 5 8 8 8 7 6 7 7 6 7 7 7 7 8 9 10 10 10 11 11 11 11 9 11 14 14 12 6 9 11 12 17 18 15 14 16 18 21 22 22 22 21 20 19 15 12 13 14 15 16 17 17 16 13 10 9 9 8 8 8 8 7 7 7 7 7
5 4 4 4 4 3 4 5 5 4 4 4 4 4 5 5 3 3 2 5 8 8 6 7 8 7 7 7 8 8 8 8 8 9 9 10 11 11 11 11 11 11 11 10 13 15 14 14 12 8 10 11 15 19 15 14 17 20 23 25 24 23 23 22 23 21 19 18 18 18 19 18 18 17 13 10 8 7 7 7 8 8 7 6 6 6 7
5 5 4 5 5 4 4 5 6 5 3 3 4 5 5 4 3 3 0 4 6 5 4 7 7 7 8 9 9 9 9 9 9 10 10 10 10 10 11 11 11 12 12 11 14 16 15 16 16 11 13 16 17 20 18 16 18 22 24 23 20 20 20 22 25 26 23 22 21 20 20 19 17 16 14 12 10 7 6 6 7 7 7 6 5 6 7
4 6 6 6 6 5 5 5 8 8 6 5 4 4 6 5 5 5 2 3 4 3 5 7 7 9 10 10 10 9 9 10 10 10 10 10 10 10 11 11 12 12 12 13 16 16 16 19 19 15 13 20 20 19 20 21 23 25 25 23 21 22 23 24 26 26 23 22 21 19 18 17 17 16 15 15 13 10 8 7 7 9 9 8 8 8 9
3 5 6 5 6 6 3 4 7 7 5 7 4 4 7 8 7 5 3 2 5 6 6 6 8 10 11 10 10 9 9 10 10 11 10 10 10 10 10 11 12 12 13 15 18 18 19 22 20 17 17 22 21 20 22 25 27 29 29 28 28 27 26 25 25 24 22 21 20 19 18 17 17 16 15 15 15 14 12 9 9 11 12 12 12 11 12
2 5 5 6 6 4 1 4 6 5 3 7 6 4 9 10 7 4 3 4 7 8 6 6 9 10 11 10 10 10 9 9 9 11 11 10 10 11 11 11 12 13 15 17 19 20 20 21 20 19 22 25 24 24 26 27 27 29 30 30 29 28 26 25 25 25 24 22 21 20 19 18 18 18 17 17 17 15 14 13 12 13 14 14 14 13 13
1 5 5 6 3 0 3 3 7 6 1 5 6 3 7 12 9 6 3 5 7 8 7 8 10 12 13 12 13 13 11 10 9 10 10 10 11 11 11 11 12 14 17 18 19 19 19 20 20 20 23 28 29 30 31 30 29 29 31 30 29 29 28 26 26 26 25 24 22 19 18 20 20 20 20 20 19 17 16 15 15 14 15 16 15 14 13
2 4 4 3 2 4 4 3 8 8 2 5 6 3 5 12 11 7 4 6 7 9 10 10 10 12 12 12 13 14 12 11 10 9 10 10 11 11 11 11 13 15 17 17 18 19 19 20 19 19 22 29 34 34 33 33 33 33 34 32 30 30 29 27 26 24 22 23 23 20 18 18 18 18 20 20 20 19 18 17 16 14 15 16 15 14 13
3 3 2 3 4 4 5 3 7 7 3 5 5 2 4 11 9 4 4 5 7 8 10 10 10 10 11 10 10 12 12 11 10 10 10 10 11 13 13 13 14 15 17 19 19 22 23 22 20 18 18 24 30 32 30 32 34 35 35 33 31 30 29 27 26 24 23 24 24 23 22 20 17 17 17 18 19 20 19 19 17 15 15 15 15 14 12
2 3 3 4 4 3 5 6 7 6 4 4 4 3 2 8 10 5 4 6 7 7 8 9 7 5 7 8 7 9 11 10 10 10 11 12 12 13 14 14 15 15 16 18 19 23 26 25 24 23 21 23 28 28 25 26 28 30 30 29 28 28 27 25 25 24 24 22 20 20 21 21 19 17 16 18 19 18 17 16 15 13 13 12 12 12 11
2 4 3 2 1 3 6 9 9 9 6 2 3 4 1 7 10 5 5 6 7 6 5 3 2 2 3 5 4 6 8 9 9 9 10 12 12 12 13 14 15 14 14 15 18 21 23 22 23 24 25 28 30 28 24 22 22 23 22 21 22 24 24 23 23 22 22 21 19 18 17 17 16 14 13 14 14 12 11 10 10 9 8 7 8 8 8
0 1 2 4 3 3 8 12 11 10 5 3 4 2 2 7 8 4 6 6 5 3 1 3 4 3 3 6 3 4 6 8 10 10 11 12 12 12 12 13 13 13 14 15 17 18 18 18 19 21 22 25 26 24 21 20 21 20 18 17 18 21 21 20 18 18 18 18 17 17 16 16 14 11 9 8 8 7 6 5 4 5 4 3 3 3 2
4 4 5 5 3 4 10 13 10 7 2 3 1 2 3 6 6 4 6 5 4 3 3 3 4 5 6 7 5 5 6 8 10 12 12 13 14 13 12 12 12 13 13 14 15 15 15 15 17 18 19 20 19 18 17 17 17 16 16 16 17 18 18 17 16 16 16 14 13 12 12 13 13 10 8 7 7 6 5 4 4 3 1 1 1 1 2
4 4 5 5 4 5 11 14 9 4 1 1 2 4 4 4 4 5 6 7 6 8 9 8 7 7 8 8 6 7 8 7 8 11 12 13 13 13 13 13 12 12 13 13 14 14 13 13 14 15 17 16 15 15 16 16 14 12 13 14 15 15 15 15 15 16 15 13 11 10 9 10 10 8 6 6 6 5 5 4 5 4 3 2 1 1 0
4 5 5 4 3 5 13 13 6 5 4 2 2 3 4 5 6 6 7 8 8 11 12 11 10 9 8 6 6 7 8 7 7 10 12 13 12 12 12 12 12 12 12 12 12 12 12 11 11 12 14 15 14 15 15 14 12 12 12 13 13 14 14 14 14 14 13 12 11 10 10 9 8 6 5 5 5 4 4 3 3 3 3 2 2 2 1
3 5 6 5 2 5 11 9 4 4 5 2 1 2 5 7 6 6 9 9 9 11 12 11 10 9 8 7 7 7 8 10 10 11 12 12 12 12 12 12 12 12 12 12 12 12 12 12 12 12 13 14 14 14 13 11 11 13 13 13 13 13 13 12 12 11 11 11 10 9 8 8 7 6 5 4 4 3 3 2 2 2 2 2 2 2 1
6 6 4 3 3 4 6 6 5 4 5 5 5 5 6 6 6 7 9 9 10 11 11 11 10 8 8 8 7 6 7 8 10 11 12 11 11 10 10 11 12 12 12 11 12 12 12 12 13 12 12 13 13 12 11 10 10 11 10 11 11 11 11 11 10 10 10 10 9 8 7 6 6 5 4 4 3 3 3 3 3 3 3 3 3 3 3
8 8 5 5 6 7 7 8 7 7 8 8 7 8 8 7 8 9 9 10 10 10 10 10 9 8 8 8 7 6 6 7 8 10 11 10 10 10 9 9 10 10 10 10 10 11 11 11 11 11 11 11 11 11 9 9 10 10 9 10 10 10 10 9 9 9 8 8 7 7 6 5 6 5 4 4 3 3 3 3 3 2 3 3 2 2 2
5 6 7 8 10 10 9 9 9 10 11 10 9 9 9 9 10 10 10 11 11 10 9 9 9 8 8 8 7 5 5 6 7 8 9 9 9 9 8 8 8 8 8 8 9 10 10 10 10 10 10 10 10 9 8 8 9 8 9 9 9 9 9 9 9 9 8 7 6 6 6 5 5 5 5 4 4 4 3 3 2 2 2 2 2 2 2
7 8 10 11 12 12 10 10 9 9 10 11 10 10 10 11 12 12 12 12 10 9 9 9 8 7 6 5 6 5 5 6 7 8 8 8 7 7 7 6 6 7 7 7 8 8 9 9 9 9 9 9 9 8 8 7 7 8 8 8 8 9 9 8 8 8 8 7 6 6 6 6 6 5 5 4 4 5 5 4 3 2 3 3 3 3 3
10 10 12 12 12 13 12 12 11 10 10 11 10 10 11 12 12 12 12 11 10 10 9 8 6 6 4 4 5 5 5 6 6 6 7 6 6 5 5 5 6 7 7 7 7 8 8 7 7 7 7 7 7 7 7 6 6 7 7 7 7 8 8 8 7 7 7 7 6 5 6 6 6 7 7 5 4 4 5 4 3 2 2 3 4 4 4
8 8 8 7 8 9 9 10 11 10 10 11 10 10 10 10 10 11 10 10 10 10 9 8 7 6 5 4 4 5 5 5 5 5 5 5 5 3 3 3 4 5 6 6 6 6 7 6 6 6 5 5 5 6 6 6 6 6 5 5 6 7 8 8 7 6 6 6 6 5 5 4 4 6 7 7 6 4 3 3 4 4 2 1 2 4 4
8 8 7 5 7 9 9 10 10 9 9 10 10 9 9 8 9 9 9 9 9 9 8 8 7 7 7 6 6 6 6 5 4 4 4 3 4 3 2 2 3 3 4 4 4 4 5 5 6 5 4 2 2 4 4 5 5 5 5 5 5 6 7 8 7 5 5 6 5 5 4 3 2 2 3 6 7 6 3 1 1 1 1 1 2 4 4
10 10 9 8 9 10 9 9 9 8 8 8 9 9 8 8 8 8 7 7 7 7 7 7 7 6 7 7 6 5 5 5 4 3 3 3 3 3 2 2 2 2 2 1 2 2 2 3 4 4 3 2 1 1 2 3 3 4 4 4 4 4 5 6 5 4 4 4 5 4 4 3 3 2 1 4 6 7 6 4 2 2 2 1 2 3 4
10 9 9 9 10 10 9 8 8 7 7 7 8 8 7 7 7 6 6 5 5 5 5 6 5 4 4 5 5 3 3 3 3 2 2 3 2 2 1 1 1 0 1 1 2 1 2 3 4 4 4 3 4 4 1 1 1 2 2 2 3 3 3 3 3 3 3 4 4 4 4 4 3 3 3 1 3 5 6 6 6 6 6 5 4 3 3
11 10 9 10 10 9 7 6 6 6 5 6 7 7 6 5 3 3 4 4 3 3 3 4 4 4 4 3 4 2 0 3 4 3 0 1 2 2 2 2 2 2 3 3 3 2 3 4 4 4 4 3 5 6 3 1 1 1 1 1 2 3 3 3 3 3 3 4 4 4 4 4 3 3 3 3 2 2 3 4 5 5 5 6 7 6 6
10 8 7 9 8 7 5 5 6 6 6 6 7 8 7 5 3 3 5 5 3 3 2 2 3 5 5 3 3 2 1 1 3 2 2 3 3 2 2 2 2 3 4 5 5 3 3 5 5 4 4 3 4 6 5 4 2 1 1 1 1 1 2 2 3 3 2 3 3 4 3 3 3 3 3 3 3 2 2 2 1 2 3 3 4 6 7
7 5 4 5 7 7 6 6 7 7 6 6 6 6 6 5 4 4 5 4 3 3 3 2 3 4 5 4 3 3 2 2 2 3 3 3 2 2 2 3 4 5 6 7 7 6 5 6 5 5 4 3 4 5 5 5 4 3 1 1 1 1 1 1 2 2 2 2 2 3 3 2 2 3 3 3 2 2 3 3 3 2 2 2 2 5 7
6 5 6 7 7 7 6 6 6 6 5 5 4 4 3 3 2 2 3 2 2 2 2 3 3 3 4 4 4 4 3 3 4 5 4 2 2 3 4 5 6 7 8 9 9 9 8 8 6 6 5 4 4 5 5 6 5 4 2 2 2 1 2 2 3 2 2 2 2 2 3 2 2 2 3 3 3 3 3 4 3 3 3 3 4 4 6
5 4 5 6 6 5 5 5 4 4 4 3 3 2 1 1 1 1 1 0 1 2 2 3 4 4 4 4 4 4 4 4 4 4 3 2 3 4 5 6 7 9 9 10 10 10 10 9 8 7 6 6 6 6 5 6 6 4 3 2 2 3 4 3 3 3 2 1 1 1 1 2 2 2 2 3 4 4 3 3 3 3 3 4 5 5 6
4 4 5 5 4 4 4 3 2 2 2 1 1 1 1 1 2 2 2 2 2 3 3 4 4 4 4 4 4 3 3 3 3 3 4 5 6 7 6 6 7 9 10 10 10 10 10 10 10 8 6 6 8 8 6 6 6 5 4 2 1 1 3 2 1 3 3 2 1 1 1 1 1 1 2 3 4 4 4 3 3 4 4 4 5 6 8
4 4 4 3 2 2 2 2 1 1 1 1 1 1 0 1 2 3 3 3 3 3 4 5 5 4 4 4 3 2 2 3 5 6 6 6 7 8 8 7 6 7 8 8 8 9 10 10 10 9 8 7 9 10 8 7 7 7 5 4 2 1 2 2 1 1 1 1 2 1 1 1 1 1 2 3 4 5 4 3 3 4 5 5 5 6 8
2 3 3 2 1 1 1 1 1 0 1 1 1 1 1 2 2 3 3 3 3 4 5 5 5 4 4 4 4 4 4 5 7 7 5 5 7 8 8 7 6 6 7 8 9 10 10 10 10 9 9 9 10 11 10 8 8 7 6 4 3 2 0 1 1 1 1 2 2 2 2 2 1 1 1 3 4 4 3 3 3 4 4 5 5 6 9
3 3 3 3 2 2 2 2 1 0 1 1 1 1 1 1 3 4 4 3 3 3 4 4 4 4 5 6 6 6 5 6 6 4 3 5 8 9 8 7 7 7 8 9 10 10 10 10 10 9 8 9 11 11 10 9 9 8 6 5 4 3 2 1 2 2 2 2 2 2 3 2 2 1 0 2 3 4 3 3 3 4 4 5 5 6 9
3 3 3 3 3 2 2 2 1 1 1 1 1 1 1 2 3 3 3 3 2 2 2 2 3 5 7 8 8 8 7 7 7 5 5 7 9 8 8 8 8 9 10 10 10 10 9 10 10 10 8 8 10 11 10 10 9 7 5 4 3 3 2 2 2 2 2 2 2 3 3 3 2 2 1 1 2 2 3 3 3 4 5 5 5 6 8
3 2 2 2 2 2 2 2 2 2 2 1 1 1 1 2 3 3 3 3 2 1 1 1 2 5 8 9 9 10 9 8 7 6 6 7 8 8 9 9 9 9 9 9 7 6 6 7 10 12 10 8 9 11 11 9 8 7 5 5 4 3 2 2 2 1 1 2 3 2 2 2 4 3 1 1 2 2 3 3 3 4 4 5 6 6 7
5 4 4 4 3 3 2 2 1 2 2 2 2 2 2 3 4 4 4 3 2 2 2 2 3 5 8 10 10 11 10 7 7 7 6 6 7 9 10 9 9 8 8 7 4 3 3 4 7 11 11 10 10 11 11 9 8 6 6 5 5 4 3 3 3 2 1 2 2 0 2 5 5 3 1 1 2 2 3 3 3 4 4 5 5 6 7
4 4 4 4 4 3 3 2 2 2 3 3 3 3 3 4 5 5 5 5 3 2 3 4 4 5 7 9 10 11 10 9 8 8 6 6 6 8 9 9 8 7 7 5 3 2 2 1 3 7 10 10 9 9 9 9 8 7 6 5 5 4 3 3 2 1 1 1 0 2 3 4 4 3 1 2 2 3 3 3 3 4 4 5 5 6 6
2 2 3 3 3 3 3 2 2 2 3 4 5 5 4 4 5 6 6 6 4 3 4 5 5 5 6 8 9 10 10 9 9 8 7 6 6 7 9 8 6 6 6 4 2 1 1 1 3 5 6 7 7 6 8 9 9 7 6 6 5 4 3 2 1 1 1 1 1 2 3 3 3 2 1 2 2 3 4 4 4 4 5 5 5 6 6
3 2 3 4 4 4 4 4 4 4 4 5 6 6 6 6 6 6 7 6 5 4 5 6 6 6 6 6 7 8 7 7 8 9 8 7 6 8 9 7 3 3 4 4 2 2 3 2 2 2 3 4 5 5 7 9 9 7 6 6 5 5 4 3 1 1 1 2 2 2 3 3 3 2 2 2 3 4 4 4 4 5 5 5 5 5 5
3 3 4 5 5 6 6 6 6 6 7 7 7 7 7 7 7 7 7 7 5 5 6 7 7 7 6 6 7 7 5 5 6 7 7 6 6 7 7 5 2 1 2 2 2 3 4 3 2 1 1 3 4 5 6 7 7 6 6 7 6 6 5 3 2 1 1 1 2 3 3 3 3 2 2 3 4 5 5 4 4 4 4 4 4 4 4
3 3 5 6 6 6 6 6 6 7 8 8 8 7 7 7 7 7 7 7 6 6 7 7 7 7 6 6 6 7 6 5 6 7 7 7 6 7 7 5 2 2 3 3 3 2 3 3 4 3 3 3 4 5 6 5 5 6 6 7 7 6 5 4 3 1 1 2 2 2 3 3 3 3 2 3 5 5 5 4 4 4 4 4 4 4 4
3 4 5 5 5 6 6 6 6 7 8 8 7 7 7 7 7 7 8 8 8 8 9 8 8 8 8 8 8 7 7 6 6 7 7 7 7 7 6 5 4 4 5 6 5 5 4 5 6 8 8 7 7 7 7 6 5 5 6 7 7 7 6 5 4 2 1 2 3 3 3 3 3 3 3 4 6 6 5 5 4 4 4 4 4 4 4
3 3 4 4 4 5 5 5 6 7 7 7 6 6 6 7 8 8 8 8 8 8 9 9 9 9 9 8 8 8 6 6 6 6 6 6 5 5 5 4 3 3 4 4 5 6 6 5 6 9 11 10 9 7 7 7 7 6 6 7 8 8 7 7 6 4 2 2 3 3 4 4 4 3 4 5 6 6 6 5 5 4 4 4 3 3 3
2 2 2 3 4 4 5 5 6 6 6 7 7 7 7 7 7 7 8 8 8 8 8 8 8 8 7 7 7 7 6 5 5 6 5 5 3 1 2 3 4 3 3 3 4 5 6 6 8 9 11 11 10 8 7 7 7 6 6 7 8 9 8 8 7 6 4 3 3 3 4 4 4 4 4 6 6 7 7 6 5 5 4 4 3 3 2
1 1 2 3 4 5 5 5 6 6 6 8 8 7 6 6 6 7 8 8 8 8 7 7 7 6 6 6 7 7 6 6 6 6 5 4 3 1 1 3 5 5 6 5 4 4 5 7 8 10 11 12 11 9 8 7 7 7 7 7 7 8 9 9 8 7 5 4 3 3 3 4 5 5 5 6 7 7 7 7 6 5 4 4 3 3 2
2 3 3 4 5 6 6 6 6 6 7 8 8 6 5 5 6 7 7 8 8 8 7 7 7 7 7 7 7 7 6 6 6 6 6 5 3 2 2 3 3 4 5 5 4 5 6 7 8 10 12 13 11 8 8 8 7 7 7 7 7 7 8 9 9 8 7 5 4 4 4 4 5 5 6 7 7 7 8 8 7 6 5 5 4 3 3
3 4 5 5 6 7 6 6 7 7 7 7 7 6 5 4 5 6 7 7 7 7 7 7 7 7 7 7 7 7 6 6 5 4 4 4 4 3 2 1 2 2 2 2 2 4 5 6 5 6 10 12 10 8 7 7 7 6 7 7 7 7 8 9 9 9 7 6 6 5 5 5 5 6 7 7 7 7 8 8 7 7 6 6 5 4 3
4 5 5 6 6 5 5 5 6 6 6 6 6 5 4 4 5 6 6 6 7 7 6 6 6 6 5 5 6 5 5 6 5 4 3 4 4 3 2 1 1 0 1 1 1 3 4 3 2 3 7 9 8 7 7 6 6 5 6 6 5 5 6 8 9 9 8 8 7 6 6 5 5 5 6 7 8 8 8 8 8 8 8 7 6 5 5
4 5 5 5 4 4 4 4 5 5 5 5 5 4 4 4 5 5 4 4 5 6 5 4 4 4 4 4 4 4 4 4 5 5 4 5 5 5 4 3 3 3 3 2 1 1 1 1 2 3 5 6 6 6 6 5 5 4 4 4 4 4 5 6 8 9 9 8 8 8 7 6 5 5 6 7 7 8 8 8 8 8 9 9 7 6 6
4 4 4 3 3 3 3 3 4 4 4 4 4 3 4 4 4 4 4 3 3 3 3 3 3 3 4 4 4 4 4 3 3 3 3 3 4 6 7 7 6 5 4 3 2 2 2 2 2 3 4 4 5 5 6 6 5 4 4 4 3 2 3 5 6 8 9 9 9 9 8 7 6 6 6 6 6 7 7 8 8 8 9 9 8 7 7
3 3 2 2 2 1 1 2 2 2 3 3 3 3 4 5 4 2 2 2 2 1 1 2 2 2 3 3 2 2 2 2 2 2 2 2 3 5 7 7 7 6 5 4 3 3 3 3 3 3 3 3 3 3 5 6 6 5 4 4 3 3 4 4 5 7 8 9 10 10 10 9 8 8 7 7 7 7 7 8 8 8 8 8 8 8 8
Wind_Direction
194 184 189 188 234 30 57 36 14 357 354 353 317 303 352 341 290 267 4 6 26 63 70 79 86 81 77 70 55 46 44 38 34 37 37 36 33 28 26 22 22 24 20 20 24 20 14 12 49 135 157 157 153 160 164 152 143 140 138 137 137 138 135 134 139 141 133 132 137 142 146 146 143 137 128 126 136 146 150 149 143 137 138 145 151 156 159
177 170 185 170 158 119 82 57 33 1 347 6 2 353 346 320 314 1 43 88 64 41 43 63 70 75 76 68 59 52 47 43 39 41 41 40 36 30 27 24 22 23 21 23 31 29 22 15 18 69 106 116 129 133 134 135 133 135 137 134 130 129 128 132 142 147 143 136 135 139 141 140 141 140 133 125 126 137 147 147 140 135 135 140 148 154 150
180 171 182 169 169 154 104 68 39 19 4 10 8 6 355 319 322 353 20 114 71 41 62 75 78 84 77 63 56 53 47 42 42 43 41 40 38 34 31 28 27 27 22 28 37 30 25 22 11 22 78 93 104 114 120 121 123 131 133 127 121 120 122 131 139 142 140 137 137 139 138 139 141 145 150 152 144 132 129 127 123 125 128 129 133 133 124
196 181 195 178 172 178 142 73 29 15 10 6 5 19 22 3 344 334 273 150 97 99 103 93 90 81 70 61 53 51 49 44 44 45 43 41 39 36 36 34 33 34 28 31 40 32 28 36 22 9 59 88 92 99 110 114 121 130 128 119 116 117 122 132 137 138 138 134 133 135 140 148 152 153 157 157 153 150 145 129 110 109 110 105 104 103 100
183 169 198 189 187 206 176 64 12 355 356 357 357 29 24 3 339 325 320 68 101 135 138 116 99 80 67 60 51 47 51 49 48 49 47 47 46 42 43 43 40 42 38 36 43 42 40 47 39 25 54 81 86 90 100 108 115 121 119 115 114 114 117 124 127 131 134 131 129 132 138 146 148 150 150 146 144 146 147 141 122 114 112 103 95 93 95
196 150 189 209 213 232 148 67 8 338 344 359 354 10 12 357 337 337 15 86 120 141 139 116 104 88 74 67 56 48 48 50 53 55 51 52 54 49 48 50 48 47 47 44 45 48 49 53 53 52 66 79 84 89 96 100 105 109 110 110 110 108 109 111 113 118 124 125 125 128 132 135 136 137 137 133 130 128 126 124 116 113 117 111 97 89 92
248 139 184 220 227 344 149 110 19 359 306 348 333 310 14 8 348 347 54 118 123 119 110 104 104 96 85 74 60 50 45 45 50 54 54 53 54 54 53 53 53 52 53 52 47 45 49 54 57 61 71 79 83 86 90 92 94 99 102 103 104 105 103 100 101 108 114 116 114 112 117 121 123 126 127 125 123 118 113 111 107 104 110 111 103 91 87
243 187 200 217 130 87 141 142 23 10 330 344 330 270 40 19 355 356 60 105 110 112 114 113 114 108 96 76 57 44 40 46 48 50 55 54 54 59 58 53 53 54 55 57 53 49 52 56 57 60 70 80 83 82 84 87 89 93 97 96 96 100 101 100 101 105 108 110 108 104 105 105 105 110 114 114 115 115 112 109 106 103 105 108 107 101 95
232 230 115 111 146 112 90 54 16 11 343 344 332 273 40 21 6 21 86 107 112 118 121 123 130 122 101 78 50 28 24 39 51 52 54 57 59 65 67 64 61 61 62 62 62 63 64 61 60 63 70 80 82 80 79 82 83 87 90 90 90 93 96 98 102 105 105 105 107 108 107 102 96 95 97 99 104 107 108 106 104 102 103 106 108 109 109
244 245 157 139 184 135 56 13 2 5 337 313 299 255 30 18 9 30 109 117 115 125 132 139 160 148 89 70 41 10 9 29 48 53 56 61 65 68 72 74 71 66 64 64 65 68 68 64 63 67 72 79 81 79 77 79 80 80 81 84 87 89 90 93 98 102 104 103 103 104 106 106 105 103 101 102 103 103 102 102 102 100 98 99 103 106 108
266 243 195 127 114 85 23 353 347 347 331 278 245 231 123 13 1 23 105 113 111 124 131 138 229 240 100 88 46 356 4 28 45 51 55 60 64 68 73 76 76 73 70 68 66 65 64 63 64 65 68 74 77 75 74 75 74 72 73 79 86 90 91 92 93 97 103 106 106 105 103 102 102 102 105 109 110 111 110 110 111 109 102 95 93 92 87
317 176 126 83 76 50 0 343 337 336 324 200 211 231 53 13 358 33 91 98 100 97 60 20 7 16 100 117 100 357 6 37 48 47 51 54 56 63 68 70 75 76 72 67 64 62 60 62 65 64 64 67 69 68 68 69 68 70 73 77 84 90 92 91 88 91 97 100 102 104 103 101 96 86 82 91 101 108 116 122 121 121 127 125 110 109 110
103 103 105 93 84 31 353 337 333 338 304 189 198 354 2 350 353 45 63 63 74 56 33 54 54 47 71 92 85 27 22 44 45 41 52 58 57 59 60 61 68 74 71 68 67 66 65 64 65 65 65 64 63 61 62 63 65 70 75 78 80 83 87 88 89 91 90 86 85 88 94 101 101 85 69 71 78 81 86 93 93 91 110 166 127 202 246
106 113 110 102 101 46 353 332 327 350 339 185 30 3 335 344 23 65 55 53 74 80 76 80 86 81 72 70 62 41 39 46 37 38 55 62 60 61 61 59 63 69 70 70 71 70 68 65 63 65 67 67 67 67 66 65 67 71 74 77 78 79 81 83 85 86 83 77 76 75 77 89 97 90 74 73 79 85 95 104 102 101 114 127 119 113 356
90 99 89 79 86 23 350 338 342 16 14 31 40 8 23 47 58 69 65 64 82 95 94 89 87 87 78 68 71 69 65 64 54 53 64 67 63 64 63 60 63 68 68 66 66 67 66 63 61 63 67 69 70 71 70 69 72 77 77 79 82 81 81 80 78 78 76 73 72 72 71 77 84 81 73 73 79 87 101 114 121 121 121 120 126 128 107
45 81 69 52 21 336 342 355 23 16 4 23 100 53 61 64 63 73 75 71 76 89 98 97 90 86 81 79 82 81 78 80 77 73 74 73 71 68 66 66 70 72 71 69 65 63 62 62 62 62 66 70 70 71 73 75 77 81 81 82 82 81 80 80 77 75 73 70 69 69 67 70 73 70 64 61 59 55 55 60 79 91 80 56 41 40 35
57 70 68 51 28 356 2 27 40 30 39 66 88 86 78 71 72 83 86 82 81 85 93 96 92 86 82 79 71 61 60 67 75 80 83 84 86 84 79 79 79 76 72 70 67 66 65 65 67 66 66 70 69 69 71 73 75 79 79 79 80 79 79 78 76 75 74 70 68 66 63 64 66 63 60 57 52 46 38 31 33 38 36 36 30 15 5
86 75 71 74 69 63 57 54 54 57 65 74 81 83 84 85 89 94 97 96 96 95 95 96 92 86 83 78 66 52 47 45 54 71 82 89 96 98 94 90 89 85 79 72 67 66 66 66 68 69 67 69 70 70 71 71 74 77 77 76 76 74 74 74 71 71 73 72 70 66 61 61 62 57 54 55 53 48 45 44 45 40 30 29 32 23 5
109 79 78 85 85 83 80 75 72 70 72 77 82 85 95 102 102 103 105 107 106 105 103 102 100 97 92 87 82 77 76 73 70 75 80 81 85 92 92 88 86 85 82 76 69 64 61 60 61 63 64 65 65 65 67 69 73 77 77 77 76 73 71 71 67 64 63 63 62 60 56 59 64 61 57 55 51 50 48 41 41 46 45 32 26 20 3
101 96 96 93 89 87 86 83 81 79 81 85 89 96 107 111 112 114 117 117 115 112 110 108 106 105 99 93 96 98 94 89 84 82 82 80 77 80 78 71 69 71 72 73 70 65 59 55 53 51 54 58 60 60 60 62 66 70 69 68 70 69 66 64 63 61 57 53 53 57 58 60 61 57 52 51 53 50 39 27 23 23 20 25 27 12 352
103 107 110 105 98 92 85 82 84 88 94 98 100 107 112 113 115 121 124 124 124 125 126 123 117 113 101 84 86 91 90 90 87 84 87 89 86 80 65 50 52 60 63 65 65 61 53 46 42 42 43 46 49 50 51 53 58 64 65 62 62 62 59 58 58 56 52 50 51 57 65 70 71 60 46 39 52 55 40 37 56 71 44 25 19 4 352
111 115 117 110 106 102 92 90 92 94 101 107 110 116 120 119 120 122 124 125 127 133 141 144 138 131 129 123 113 106 102 103 103 100 101 100 100 96 77 64 67 65 60 58 55 52 45 32 25 24 27 33 38 39 38 41 45 49 50 50 51 50 48 47 47 47 49 49 48 52 60 69 84 77 58 48 51 54 51 52 58 66 75 40 350 350 351
105 113 113 100 105 108 103 100 100 97 101 104 102 107 119 127 130 132 130 129 132 140 152 156 151 145 151 159 154 138 130 130 128 122 113 102 105 122 126 101 95 88 75 68 59 50 37 19 8 4 358 357 20 30 31 31 33 31 29 32 40 45 45 40 35 33 40 41 39 43 47 46 61 94 101 89 72 54 40 65 95 69 78 282 315 341 348
108 112 110 106 110 112 109 107 104 97 94 93 89 93 104 115 126 133 133 135 138 144 154 161 159 151 157 170 171 154 143 147 143 128 110 88 87 110 121 102 102 110 108 88 66 49 19 358 352 344 325 291 255 330 20 25 25 25 26 29 35 37 37 36 30 23 27 32 31 31 33 34 34 29 87 131 111 80 57 58 96 110 88 35 351 347 341
109 107 106 106 108 110 110 109 104 96 87 85 87 88 88 92 104 114 118 126 137 144 156 168 172 171 174 179 180 171 151 145 142 130 113 99 87 78 67 63 64 29 345 346 350 344 336 341 336 316 299 262 220 218 242 355 15 20 24 28 32 27 18 19 22 19 20 20 19 22 23 24 34 36 24 41 122 112 99 89 87 84 70 53 41 24 355
108 110 110 107 107 112 117 114 108 105 98 91 94 97 92 87 91 98 100 107 121 141 163 178 189 201 202 187 181 195 120 124 150 170 154 43 45 15 13 12 343 329 327 319 314 318 324 328 323 305 289 251 215 214 224 239 274 2 17 9 19 28 16 1 358 6 12 10 9 14 21 23 28 45 52 47 46 83 119 125 121 114 89 53 31 18 15
112 114 110 110 113 113 104 96 101 112 115 105 99 101 104 111 120 109 103 105 110 126 147 162 177 188 192 189 193 222 328 114 167 209 322 354 358 348 350 336 303 294 291 292 295 297 298 308 316 312 295 253 211 211 219 226 238 262 312 330 25 66 50 14 360 2 8 10 11 15 21 36 45 43 53 74 69 55 58 69 88 125 118 82 32 9 12
105 87 68 83 101 101 93 94 106 115 116 108 100 100 106 116 121 109 103 105 113 126 144 157 168 181 186 191 203 219 229 239 257 293 323 339 348 346 339 310 287 279 277 283 285 279 279 294 309 309 296 266 219 214 222 231 239 245 253 256 225 185 119 17 1 1 7 11 18 24 29 44 65 65 56 58 59 56 58 51 28 15 46 57 14 0 8
92 82 72 76 88 100 106 112 116 117 116 117 118 115 111 108 107 94 85 97 129 153 175 185 194 208 203 201 218 238 249 267 293 307 318 338 354 335 319 307 295 281 273 273 274 271 273 281 290 292 285 262 234 227 235 245 247 249 270 290 293 320 351 358 353 352 11 25 28 48 61 47 44 61 57 42 32 28 34 38 24 9 19 22 6 360 7
90 96 98 94 96 104 109 109 109 113 121 132 137 133 116 358 344 14 32 65 212 228 229 212 213 223 219 216 230 250 271 294 306 312 323 344 337 322 314 307 297 286 278 276 273 268 265 266 269 273 269 249 234 232 246 254 249 249 272 297 330 355 355 350 337 334 348 11 2 28 65 40 33 43 32 22 22 16 17 29 27 17 29 34 20 9 5
104 101 103 104 98 89 89 93 101 110 119 142 189 194 207 275 304 324 328 296 263 248 234 226 228 226 222 228 241 251 267 291 303 313 320 321 318 319 322 313 298 293 292 291 286 276 266 261 258 257 253 240 229 230 244 253 243 236 249 255 239 359 1 3 337 329 343 346 289 281 340 6 30 41 15 9 11 6 4 19 28 26 32 33 26 18 9
127 123 121 117 105 87 85 91 114 122 123 147 213 236 265 335 332 338 334 308 282 254 231 227 228 223 217 220 222 217 234 269 288 296 304 311 317 322 324 316 301 293 293 294 288 276 264 258 253 247 241 231 224 224 233 245 241 235 237 234 217 221 16 19 323 293 316 301 267 274 316 329 316 353 7 7 5 5 12 26 36 39 36 32 33 26 7
148 136 121 97 72 55 52 47 23 21 95 115 125 91 66 35 358 350 344 312 273 245 228 225 222 213 202 195 197 213 243 270 279 280 291 310 319 319 317 305 288 280 283 291 292 280 265 255 248 243 235 224 218 219 225 234 237 235 233 229 219 203 183 339 302 272 257 264 271 282 297 298 289 308 22 16 8 10 28 46 47 49 43 39 42 25 2
51 58 51 34 11 352 351 353 347 346 129 143 151 145 92 19 357 356 349 325 283 248 231 222 208 198 197 203 217 230 245 267 277 282 304 317 316 316 311 292 275 273 278 287 294 288 270 254 243 235 227 218 214 216 222 228 232 233 229 224 229 240 255 289 306 297 291 289 271 254 260 264 253 236 44 22 14 24 54 69 62 61 52 45 47 32 13
45 47 44 30 20 6 342 324 319 313 279 205 191 236 291 345 358 360 355 342 319 278 239 204 197 209 216 222 233 239 244 260 280 296 310 312 312 315 310 294 283 283 289 294 296 290 276 257 239 227 221 216 212 214 221 225 227 232 232 225 235 263 293 310 311 308 308 303 284 272 274 255 205 177 138 40 30 45 79 85 74 71 62 49 48 40 26
49 45 38 22 17 1 315 295 288 291 282 253 231 251 284 334 345 340 338 341 333 294 228 174 195 225 230 230 235 244 251 260 269 275 287 302 310 314 312 304 296 296 304 311 309 295 281 262 238 224 220 219 212 211 217 220 223 230 231 223 227 248 276 300 304 303 310 310 306 302 275 206 168 148 120 73 61 73 100 99 80 71 65 54 50 50 42
55 42 32 19 10 358 330 306 287 279 268 242 234 262 289 314 322 322 319 314 303 275 240 210 210 235 244 242 243 249 254 253 249 254 269 292 307 312 311 305 296 294 307 327 342 333 303 276 236 215 211 211 208 207 212 216 218 225 227 222 224 241 268 297 301 291 294 312 325 332 177 176 164 148 123 100 91 92 108 106 83 70 71 65 59 59 57
61 47 36 23 9 354 341 330 302 278 264 252 254 272 295 309 313 311 301 292 285 268 252 240 228 234 244 247 249 254 253 244 237 240 253 272 291 303 304 301 299 307 319 336 360 6 345 324 182 186 194 198 196 200 211 213 208 214 228 228 223 234 266 296 305 293 292 300 185 153 167 174 172 166 143 112 110 113 115 104 83 77 83 81 71 67 66
46 36 23 3 349 339 331 315 279 258 261 272 279 285 293 301 303 299 291 286 278 257 251 252 246 241 241 240 244 249 249 240 231 233 243 258 272 283 288 290 298 314 320 320 325 312 294 137 141 166 185 185 180 196 212 205 194 202 229 236 226 229 257 286 301 268 222 183 142 152 165 171 172 170 148 123 128 131 122 107 95 96 98 92 81 75 72
315 320 325 321 318 314 307 295 278 267 266 275 282 287 290 292 292 288 285 284 274 255 251 255 257 258 260 260 260 258 248 230 225 231 240 247 253 267 280 286 292 309 314 316 300 254 241 213 158 159 178 174 175 188 194 190 189 206 235 240 228 228 242 263 289 260 205 169 146 155 167 166 167 171 163 144 141 142 135 122 111 108 107 102 92 85 80
303 305 304 300 300 299 298 295 291 286 278 274 275 280 285 290 288 284 283 283 276 262 255 256 258 265 271 273 273 270 255 225 213 218 227 237 249 270 287 301 323 327 305 298 265 251 252 250 265 294 166 177 187 183 179 187 206 227 238 234 228 227 232 240 265 297 238 193 182 178 174 168 164 168 169 157 151 151 148 136 125 120 117 111 104 99 92
305 304 297 291 289 291 292 294 295 294 288 281 276 271 272 279 281 277 277 278 275 268 261 257 259 267 271 268 269 270 259 235 215 211 219 238 261 284 299 312 326 296 278 265 252 257 256 240 231 224 202 196 206 202 196 207 230 238 232 225 224 225 227 231 242 266 251 213 202 185 178 182 179 176 182 179 167 160 157 150 141 135 130 122 116 109 104
310 301 295 292 292 294 293 291 292 293 291 286 279 271 268 271 272 271 273 275 272 271 270 265 261 263 263 261 263 268 262 245 229 222 228 241 250 262 279 297 305 287 273 263 251 247 244 233 225 221 215 213 216 216 215 224 239 243 232 223 222 223 223 224 230 240 240 217 206 197 193 196 192 179 180 182 174 167 166 163 156 150 145 138 129 118 110
305 298 299 306 306 303 297 291 289 289 290 290 288 281 274 269 266 265 270 273 273 274 275 274 268 264 259 255 256 260 259 246 230 223 238 255 247 226 231 254 275 284 281 270 255 250 248 240 232 228 223 219 219 222 228 236 244 243 234 224 224 225 224 220 220 225 226 215 211 208 203 202 198 186 177 176 177 177 176 171 165 162 160 152 142 132 123
302 304 320 325 315 306 303 301 302 305 305 299 291 281 274 271 266 263 266 271 273 274 275 276 272 264 253 247 249 251 251 248 235 225 242 276 295 177 175 209 228 243 265 279 274 265 257 248 244 239 230 222 221 224 231 240 244 241 235 231 228 227 227 222 218 218 219 212 206 205 201 198 197 190 181 179 182 183 182 178 175 173 174 170 165 157 143
309 316 317 316 313 310 311 310 308 306 302 295 288 278 267 266 266 263 263 267 271 273 273 270 266 256 244 242 245 244 240 239 233 227 240 268 296 358 249 247 245 248 259 267 270 267 264 264 262 250 232 221 218 220 225 235 239 237 236 235 230 228 229 223 214 212 216 210 196 194 197 193 190 189 189 190 192 193 193 191 190 187 186 186 178 169 165
331 322 317 318 316 312 306 297 288 286 289 294 296 293 283 274 272 270 267 267 268 270 268 261 255 252 250 249 247 244 240 237 230 223 228 237 228 203 234 272 277 268 259 250 248 255 267 277 275 255 232 218 212 214 222 230 234 235 236 235 232 231 230 222 211 211 217 210 192 186 190 190 187 189 193 197 200 200 199 199 200 198 195 193 187 183 186
325 319 319 317 312 306 299 288 282 286 294 302 304 303 301 292 282 274 268 263 261 261 259 254 252 254 254 247 241 238 243 250 245 227 215 215 209 192 195 263 300 294 257 229 241 273 284 288 282 249 221 209 206 212 224 231 232 234 236 234 230 230 227 218 211 214 218 211 199 194 194 193 190 190 192 197 203 204 201 202 206 208 205 202 202 203 202
316 314 312 307 305 305 301 292 290 295 302 303 300 301 305 299 288 280 271 265 261 257 251 245 244 245 241 233 230 229 234 246 255 250 228 217 217 209 190 188 211 157 149 178 238 287 293 285 251 207 199 200 205 214 225 229 232 235 233 225 219 219 218 215 214 218 222 220 216 210 204 199 195 191 191 198 204 206 204 205 209 211 210 208 209 214 215
310 310 311 316 325 329 321 311 311 315 315 309 305 306 305 302 303 307 302 279 263 255 247 233 221 216 214 217 226 236 239 241 248 250 242 232 226 218 201 188 184 166 145 147 187 259 281 248 204 192 193 202 213 221 224 224 225 221 206 190 183 189 202 211 215 217 220 223 225 222 215 208 200 193 195 200 205 208 210 211 214 216 216 213 215 221 223
313 320 329 340 348 343 333 329 327 324 319 316 313 306 296 295 307 331 341 325 296 271 249 218 196 199 212 216 220 234 246 246 240 236 229 219 212 202 191 184 183 175 156 146 151 156 154 166 184 189 194 207 220 222 214 204 195 184 173 166 170 196 223 231 229 224 220 221 221 221 221 218 209 202 204 207 207 208 212 214 218 221 222 219 219 223 224
306 321 326 317 311 323 348 355 339 327 321 318 311 301 297 299 304 318 341 343 337 307 243 217 202 214 236 235 214 202 208 205 192 189 185 179 184 189 189 189 188 183 174 167 161 154 152 161 171 174 177 187 203 206 197 190 185 181 180 187 209 233 238 239 237 230 225 222 220 218 219 219 215 213 214 214 211 213 217 219 220 223 224 222 221 223 222